Location: Averill Park
(42.6340°N, 73.5537°W)
Time: 15:05:23
(UTC+00:00)

BlueWalker 3 - Visible Passes

Search period start: 15 December 2025 00:00
Search period end: 25 December 2025 00:00
Orbit: 454 x 462 km, 53.2° (Epoch: 14 December)

Date Brightness Start Highest point End Pass type
(mag) Time Alt. Az. Time Alt. Az. Time Alt. Az.
19 Dec 3.8 11:26:15 10° SSW 11:29:27 32° SE 11:32:41 10° ENE visible
20 Dec 4.2 10:51:38 10° S 10:54:35 24° SE 10:57:33 10° ENE visible
21 Dec 4.5 10:17:08 10° S 10:19:43 19° SE 10:22:19 10° E visible
22 Dec 4.6 09:43:29 12° SSE 09:44:52 15° SE 09:46:54 10° E visible
22 Dec 1.6 11:18:23 10° WSW 11:21:58 73° NW 11:25:34 10° NE visible
23 Dec 1.7 10:45:04 26° SW 10:47:00 88° SE 10:50:36 10° NE visible
24 Dec 2.1 10:12:23 62° ESE 10:12:23 62° ESE 10:15:37 10° ENE visible
24 Dec 3.0 11:46:48 10° W 11:49:50 25° NNW 11:52:52 10° NE visible
